CW9585 Weather Reports


Display with metric or nautical units.
time (UTC)temp
F
wind
direction
speed
MPH
gust
MPH
rain 1hr
in
rain 24hr
in
rain mn
in
humidity
%
barometer
mb
20260901132704 61 234 0.0 0.0 0.00 0.00 0.00 76 1015.7
20260901132205 61 234 0.0 0.0 0.00 0.00 0.00 76 1015.7
20260901130704 61 234 0.0 0.0 0.00 0.00 0.00 76 1015.7
20260901130204 60 234 0.0 0.0 0.00 0.00 0.00 75 1015.6
20260901125704 60 234 0.0 0.0 0.00 0.00 0.00 75 1015.5
20260901125204 60 234 0.0 0.0 0.00 0.00 0.00 75 1015.5
20260901124205 60 234 0.0 0.0 0.00 0.00 0.00 75 1015.4
20260901123705 60 234 0.0 0.0 0.00 0.00 0.00 74 1015.5
20260901122704 61 234 0.0 0.0 0.00 0.00 0.00 74 1015.5
20260901122205 60 234 0.0 0.0 0.00 0.00 0.00 74 1015.5
20260901121204 61 234 0.0 0.0 0.00 0.00 0.00 74 1015.5
20260901120705 61 234 0.0 0.0 0.00 0.00 0.00 74 1015.3
20260901120204 61 234 0.0 0.0 0.00 0.00 0.00 74 1015.3
20260901115705 61 234 0.0 0.0 0.00 0.00 0.00 74 1015.3
20260901115204 61 234 0.0 0.0 0.00 0.00 0.00 74 1015.3
20260901114704 61 234 0.0 0.0 0.00 0.00 0.00 74 1015.4
20260901114204 61 234 0.0 0.0 0.00 0.00 0.00 74 1015.4
20260901113704 61 234 0.0 0.0 0.00 0.00 0.00 74 1015.4
20260901113204 61 234 0.0 3.0 0.00 0.00 0.00 74 1015.5
20260901112705 61 234 0.0 3.0 0.00 0.00 0.00 74 1015.5
20260901111704 61 234 1.0 3.0 0.00 0.00 0.00 74 1015.6
20260901111205 61 234 1.0 3.0 0.00 0.00 0.00 74 1015.5
20260901110704 61 263 0.0 3.0 0.00 0.00 0.00 74 1015.3
20260901110205 61 318 0.0 4.0 0.00 0.00 0.00 74 1015.2
20260901105704 61 318 1.0 4.0 0.00 0.00 0.00 74 1015.4
20260901105204 61 318 0.0 4.0 0.00 0.00 0.00 74 1015.4
20260901104704 61 322 0.0 0.0 0.00 0.00 0.00 74 1015.3
20260901104205 61 35 0.0 1.0 0.00 0.00 0.00 74 1015.3
20260901103204 61 325 0.0 5.0 0.00 0.00 0.00 74 1015.3
20260901102204 61 242 2.0 5.0 0.00 0.00 0.00 74 1015.1
20260901101705 61 292 2.0 5.0 0.00 0.00 0.00 74 1015.2
20260901101205 61 286 2.0 5.0 0.00 0.00 0.00 74 1015.2
20260901100204 61 0 3.0 5.0 0.00 0.00 0.00 75 1015.4
20260901095705 61 293 2.0 5.0 0.00 0.00 0.00 75 1015.3
20260901095204 61 309 3.0 5.0 0.00 0.00 0.00 75 1015.3
20260901094705 61 283 3.0 5.0 0.00 0.00 0.00 75 1015.3
20260901094205 61 283 2.0 5.0 0.00 0.00 0.00 75 1015.2
20260901093204 61 285 1.0 3.0 0.00 0.00 0.00 76 1015.2
20260901092704 61 265 1.0 3.0 0.00 0.00 0.00 76 1015.1
20260901092204 61 292 1.0 3.0 0.00 0.00 0.00 76 1015.1
20260901091704 61 262 1.0 3.0 0.00 0.00 0.00 76 1015.0
20260901091205 61 262 0.0 0.0 0.00 0.00 0.00 76 1015.2
20260901090704 61 262 0.0 0.0 0.00 0.00 0.00 76 1015.2
20260901090204 61 262 0.0 0.0 0.00 0.00 0.00 76 1015.2
20260901085704 61 262 0.0 0.0 0.00 0.00 0.00 76 1015.1
20260901085204 61 262 0.0 0.0 0.00 0.00 0.00 76 1015.1
20260901084705 61 262 0.0 0.0 0.00 0.00 0.00 76 1015.1
20260901084205 61 282 0.0 0.0 0.00 0.00 0.00 76 1015.0
20260901083705 61 282 0.0 0.0 0.00 0.00 0.00 76 1015.0
20260901083204 61 282 0.0 0.0 0.00 0.00 0.00 76 1015.1
20260901082204 61 282 0.0 0.0 0.00 0.00 0.00 77 1015.1
20260901081704 61 282 0.0 0.0 0.00 0.00 0.00 77 1015.1
20260901081204 61 282 0.0 0.0 0.00 0.00 0.00 77 1015.1
20260901080705 61 282 0.0 2.0 0.00 0.00 0.00 77 1015.1
20260901075704 61 278 1.0 3.0 0.00 0.00 0.00 77 1015.1
20260901075205 61 289 1.0 3.0 0.00 0.00 0.00 77 1015.0
20260901074704 61 289 1.0 4.0 0.00 0.00 0.00 77 1015.1
20260901074205 61 285 1.0 4.0 0.00 0.00 0.00 77 1015.2
20260901073704 61 303 2.0 4.0 0.00 0.00 0.00 77 1015.2
20260901073204 61 333 2.0 5.0 0.00 0.00 0.00 78 1015.2
20260901072704 61 283 2.0 5.0 0.00 0.00 0.00 78 1015.2
20260901072204 61 320 2.0 5.0 0.00 0.00 0.00 78 1015.2
20260901071704 61 319 3.0 5.0 0.00 0.00 0.00 78 1015.1
20260901070705 61 306 2.0 5.0 0.00 0.00 0.00 78 1015.2
20260901070204 61 334 2.0 5.0 0.00 0.00 0.00 79 1015.1
20260901065704 61 261 2.0 7.0 0.00 0.00 0.00 79 1015.2
20260901065205 61 281 3.0 7.0 0.00 0.00 0.00 79 1015.2
20260901064704 61 288 2.0 5.0 0.00 0.00 0.00 80 1015.2
20260901064204 61 309 0.0 5.0 0.00 0.00 0.00 80 1015.2
20260901063704 61 306 1.0 5.0 0.00 0.00 0.00 81 1015.2
20260901062705 60 297 2.0 6.0 0.00 0.00 0.00 81 1015.2
20260901062204 60 295 3.0 6.0 0.00 0.00 0.00 82 1015.2
20260901061705 60 289 3.0 6.0 0.00 0.00 0.00 83 1015.2
20260901061205 60 275 2.0 4.0 0.00 0.00 0.00 84 1015.3
20260901060704 60 288 1.0 3.0 0.00 0.00 0.00 85 1015.3
20260901060205 60 245 1.0 3.0 0.00 0.00 0.00 85 1015.3
20260901055704 61 166 0.0 2.0 0.00 0.00 0.00 86 1015.2
20260901055204 61 166 0.0 3.0 0.00 0.00 0.00 86 1015.2
20260901054205 61 138 1.0 5.0 0.00 0.00 0.00 87 1015.2
20260901053704 61 138 1.0 5.0 0.00 0.00 0.00 87 1015.3
20260901053204 61 166 1.0 5.0 0.00 0.00 0.00 87 1015.5
20260901052704 61 165 1.0 3.0 0.00 0.00 0.00 87 1015.4
20260901052205 61 165 1.0 4.0 0.00 0.00 0.00 87 1015.4
20260901051204 61 192 2.0 4.0 0.00 0.00 0.00 86 1015.3
20260901050205 61 186 2.0 4.0 0.00 0.00 0.00 86 1015.2
20260901045704 61 158 1.0 4.0 0.00 0.00 0.00 86 1015.1
20260901045205 61 188 0.0 3.0 0.00 0.00 0.00 86 1015.0
20260901044704 61 202 0.0 4.0 0.00 0.00 0.00 86 1014.9
20260901044204 61 202 1.0 4.0 0.00 0.00 0.00 85 1014.9
20260901043704 61 202 2.0 4.0 0.00 0.00 0.00 85 1014.8
20260901042204 62 230 0.0 3.0 0.00 0.00 0.00 85 1014.6
20260901041704 62 96 0.0 1.0 0.00 0.00 0.00 85 1014.6
20260901041204 62 96 0.0 3.0 0.00 0.00 0.00 85 1014.6
20260901040704 62 96 0.0 3.0 0.00 0.00 0.00 84 1014.6
20260901040204 62 96 1.0 3.0 0.00 0.00 0.00 84 1014.6
20260901035704 62 70 0.0 0.0 0.00 0.00 0.00 84 1014.5
20260901035204 62 86 0.0 2.0 0.00 0.00 0.00 84 1014.4
20260901034705 62 19 0.0 3.0 0.00 0.00 0.00 83 1014.4
20260901034204 62 19 1.0 3.0 0.00 0.00 0.00 83 1014.3
20260901033205 62 5 1.0 3.0 0.00 0.00 0.00 83 1014.2
20260901032704 62 41 1.0 4.0 0.00 0.00 0.00 82 1014.1
20260901031704 63 52 1.0 5.0 0.00 0.00 0.00 81 1013.9
20260901031204 63 45 1.0 5.0 0.00 0.00 0.00 81 1014.0
20260901030705 63 84 1.0 5.0 0.00 0.00 0.00 81 1013.9
20260901030204 63 80 2.0 7.0 0.00 0.00 0.00 80 1013.9
20260901025205 64 53 3.0 7.0 0.00 0.00 0.00 79 1013.9
20260901024705 64 47 3.0 6.0 0.00 0.00 0.00 79 1013.8
20260901023704 65 50 3.0 7.0 0.00 0.00 0.00 78 1013.7
20260901022704 65 65 1.0 3.0 0.00 0.00 0.00 76 1013.6
20260901022204 65 132 0.0 4.0 0.00 0.00 0.00 76 1013.6
20260901021204 65 279 3.0 8.0 0.00 0.00 0.00 76 1013.7
20260901020704 65 263 3.0 8.0 0.00 0.00 0.00 76 1013.7
20260901020204 65 207 3.0 8.0 0.00 0.00 0.00 77 1013.6
20260901015704 65 169 4.0 8.0 0.00 0.00 0.00 77 1013.7
20260901014704 65 232 4.0 9.0 0.00 0.00 0.00 76 1013.7
20260901014204 66 209 5.0 9.0 0.00 0.00 0.00 76 1013.6
20260901013704 66 192 4.0 8.0 0.00 0.00 0.00 75 1013.5
20260901013204 66 243 4.0 9.0 0.00 0.00 0.00 76 1013.4
20260901012704 66 171 4.0 9.0 0.00 0.00 0.00 77 1013.5
20260901012204 66 207 4.0 9.0 0.00 0.00 0.00 77 1013.5
20260901011704 66 200 4.0 12.0 0.00 0.00 0.00 77 1013.5
20260901010704 67 165 5.0 17.0 0.00 0.00 0.00 76 1013.6
20260901010204 67 219 5.0 17.0 0.00 0.00 0.00 75 1013.7
20260901005704 67 212 6.0 13.0 0.00 0.00 0.00 75 1013.7
20260901004704 67 242 6.0 14.0 0.00 0.00 0.00 76 1013.6
20260901003705 67 270 6.0 15.0 0.00 0.00 0.00 75 1013.6
20260901003204 67 222 6.0 15.0 0.00 0.00 0.00 75 1013.6
20260901002704 67 267 7.0 14.0 0.00 0.00 0.00 76 1013.7
20260901002205 67 252 7.0 16.0 0.00 0.00 0.00 76 1013.6
20260901001204 67 169 7.0 14.0 0.00 0.00 0.00 74 1013.6
20260901000704 68 194 6.0 13.0 0.00 0.00 0.00 74 1013.6
20260831235704 69 205 6.0 13.0 0.00 0.00 0.00 73 1013.5
20260831235205 69 227 6.0 10.0 0.00 0.00 0.00 73 1013.6
20260831234704 69 196 5.0 11.0 0.00 0.00 0.00 73 1013.7
20260831234205 69 180 6.0 14.0 0.00 0.00 0.00 74 1013.7
20260831233704 68 209 7.0 14.0 0.00 0.00 0.00 75 1013.7
20260831232704 68 191 6.0 16.0 0.00 0.00 0.00 75 1013.7
20260831232205 68 192 7.0 16.0 0.00 0.00 0.00 75 1013.8
20260831231704 68 239 6.0 16.0 0.00 0.00 0.00 75 1013.8
20260831231205 68 212 6.0 14.0 0.00 0.00 0.00 76 1013.9
20260831230704 68 196 6.0 11.0 0.00 0.00 0.00 76 1013.9
20260831230204 68 215 6.0 11.0 0.00 0.00 0.00 76 1014.0
20260831225704 67 225 5.0 14.0 0.00 0.00 0.00 77 1014.0
20260831225204 67 182 6.0 17.0 0.00 0.00 0.00 78 1014.0
20260831224705 66 109 8.0 17.0 0.00 0.00 0.00 78 1014.0
20260831224204 66 178 8.0 17.0 0.00 0.00 0.00 78 1014.1
20260831223704 66 223 7.0 14.0 0.00 0.00 0.00 78 1014.2
20260831223204 66 229 7.0 15.0 0.00 0.00 0.00 79 1014.2
20260831222705 66 167 8.0 17.0 0.00 0.00 0.00 78 1014.1
20260831222205 66 240 8.0 17.0 0.00 0.00 0.00 78 1014.2
20260831221704 66 234 8.0 17.0 0.00 0.00 0.00 78 1014.3
20260831221204 66 214 7.0 19.0 0.00 0.00 0.00 78 1014.4
20260831220705 66 178 8.0 19.0 0.00 0.00 0.00 79 1014.5
20260831220204 65 209 9.0 19.0 0.00 0.00 0.00 79 1014.6
20260831215704 66 189 7.0 15.0 0.00 0.00 0.00 79 1014.8
20260831214205 64 163 10.0 19.0 0.00 0.00 0.00 81 1014.9
20260831213704 65 202 9.0 16.0 0.00 0.00 0.00 80 1015.1
20260831213204 64 223 9.0 16.0 0.00 0.00 0.00 80 1015.0
20260831212704 64 186 9.0 16.0 0.00 0.00 0.00 80 1015.0
20260831211704 64 213 9.0 14.0 0.00 0.00 0.00 80 1015.1
20260831210705 65 198 9.0 15.0 0.00 0.00 0.00 80 1015.2
20260831210204 64 215 8.0 14.0 0.00 0.00 0.00 80 1015.3
20260831205205 64 151 8.0 13.0 0.00 0.00 0.00 80 1015.4
20260831204704 64 233 8.0 13.0 0.00 0.00 0.00 80 1015.3
20260831204204 65 200 8.0 13.0 0.00 0.00 0.00 80 1015.4
20260831203204 65 222 7.0 13.0 0.00 0.00 0.00 79 1015.5
20260831202704 65 180 7.0 13.0 0.00 0.00 0.00 79 1015.4
20260831202205 65 201 7.0 13.0 0.00 0.00 0.00 79 1015.6
20260831201704 65 203 7.0 13.0 0.00 0.00 0.00 78 1015.5
20260831201205 65 171 7.0 13.0 0.00 0.00 0.00 77 1015.6
20260831195704 66 157 6.0 11.0 0.00 0.00 0.00 76 1015.5
20260831195204 66 196 5.0 11.0 0.00 0.00 0.00 77 1015.5
20260831194704 65 163 5.0 10.0 0.00 0.00 0.00 77 1015.6
20260831194205 65 186 5.0 10.0 0.00 0.00 0.00 78 1015.6
20260831193704 65 219 5.0 12.0 0.00 0.00 0.00 78 1015.7
20260831192704 65 191 5.0 13.0 0.00 0.00 0.00 78 1015.8
20260831192204 65 176 5.0 13.0 0.00 0.00 0.00 77 1015.9
20260831191704 65 190 6.0 13.0 0.00 0.00 0.00 80 1016.0
20260831190705 64 184 6.0 12.0 0.00 0.00 0.00 80 1016.0
20260831190204 64 157 6.0 12.0 0.00 0.00 0.00 79 1016.0
20260831185204 64 182 6.0 11.0 0.00 0.00 0.00 77 1016.0
20260831184705 64 128 5.0 9.0 0.00 0.00 0.00 77 1015.9
20260831184204 64 177 5.0 9.0 0.00 0.00 0.00 77 1015.8
20260831183705 64 132 5.0 9.0 0.00 0.00 0.00 77 1015.9
20260831183204 64 113 4.0 9.0 0.00 0.00 0.00 78 1015.9
20260831182204 63 192 5.0 9.0 0.00 0.00 0.00 78 1016.0
20260831181204 62 189 4.0 9.0 0.00 0.00 0.00 79 1016.1
20260831180704 62 133 4.0 9.0 0.00 0.00 0.00 79 1016.1
20260831180205 62 188 4.0 9.0 0.00 0.00 0.00 79 1016.1
20260831175705 62 190 4.0 9.0 0.00 0.00 0.00 80 1016.1
20260831174705 62 178 3.0 8.0 0.00 0.00 0.00 80 1016.0
20260831174204 62 117 4.0 8.0 0.00 0.00 0.00 80 1016.0
20260831173704 62 115 4.0 8.0 0.00 0.00 0.00 80 1015.9
20260831173204 62 190 3.0 7.0 0.00 0.00 0.00 80 1015.9
20260831172705 62 180 2.0 6.0 0.00 0.00 0.00 80 1015.9
20260831171705 61 212 4.0 7.0 0.00 0.00 0.00 80 1016.0
20260831171204 61 234 4.0 7.0 0.00 0.00 0.00 80 1015.9
20260831170704 61 202 4.0 7.0 0.00 0.00 0.00 81 1015.9
20260831165204 61 154 3.0 8.0 0.00 0.00 0.00 81 1015.7
20260831164704 61 217 3.0 8.0 0.00 0.00 0.00 80 1015.5
20260831164205 61 178 3.0 7.0 0.00 0.00 0.00 80 1015.6
20260831163705 60 155 4.0 7.0 0.00 0.00 0.00 81 1015.6
20260831163205 60 148 3.0 6.0 0.00 0.00 0.00 81 1015.6
20260831162705 60 202 2.0 7.0 0.00 0.00 0.00 81 1015.5
20260831162205 60 232 3.0 7.0 0.00 0.00 0.00 82 1015.5
20260831161704 60 303 3.0 7.0 0.00 0.00 0.00 82 1015.5
20260831161204 59 348 1.0 4.0 0.00 0.00 0.00 83 1015.5
20260831160704 59 330 1.0 4.0 0.00 0.00 0.00 84 1015.5
20260831160205 59 284 1.0 6.0 0.00 0.00 0.00 85 1015.4
20260831155705 59 0 2.0 6.0 0.00 0.00 0.00 85 1015.5
20260831154704 58 295 0.0 0.0 0.00 0.00 0.00 86 1015.4
20260831154205 58 9 0.0 0.0 0.00 0.00 0.00 87 1015.4
20260831153704 58 59 0.0 0.0 0.00 0.00 0.00 88 1015.3
20260831153204 58 54 0.0 0.0 0.00 0.00 0.00 88 1015.3
20260831152705 58 313 0.0 0.0 0.00 0.00 0.00 89 1015.3
20260831152204 57 50 0.0 0.0 0.00 0.00 0.00 89 1015.3
20260831151705 57 11 0.0 0.0 0.00 0.00 0.00 89 1015.3
20260831150705 57 11 0.0 0.0 0.00 0.00 0.00 90 1015.3
20260831150204 57 5 0.0 0.0 0.00 0.00 0.00 90 1015.2
20260831145704 57 355 0.0 0.0 0.00 0.00 0.00 90 1015.2
20260831145204 56 272 0.0 0.0 0.00 0.00 0.00 91 1015.1
20260831144705 56 272 0.0 0.0 0.00 0.00 0.00 91 1015.0
20260831144205 56 272 0.0 0.0 0.00 0.00 0.00 91 1014.9
20260831143704 56 272 0.0 0.0 0.00 0.00 0.00 91 1014.9
20260831143204 56 272 0.0 0.0 0.00 0.00 0.00 91 1014.8
20260831142704 56 272 0.0 5.0 0.00 0.00 0.00 91 1014.8
20260831141704 56 294 1.0 5.0 0.00 0.00 0.00 91 1014.8
20260831141204 56 331 1.0 4.0 0.00 0.00 0.00 92 1014.7
20260831140705 56 296 1.0 5.0 0.00 0.00 0.00 92 1014.6
20260831140204 56 294 2.0 5.0 0.00 0.00 0.00 92 1014.5
20260831135705 56 281 2.0 5.0 0.00 0.00 0.00 92 1014.5
20260831134704 56 317 1.0 5.0 0.00 0.00 0.00 92 1014.4
20260831134205 56 306 1.0 4.0 0.00 0.00 0.00 92 1014.4
20260831133705 56 304 2.0 5.0 0.00 0.00 0.00 92 1014.3